Location: Aragnouet
(42.7874°N, 0.2165°E)
Time: 03:28:46
(UTC+00:00)

Cosmos 220 Rocket - Pass Details

Date: 09 April 2020
Orbit: 574 x 618 km, 74.0° (Epoch: 29 May)

Event Time Altitude Azimuth Distance (km) Brightness Sun altitude
Rises 20:52:18 0° 337° (NNW) 2,844 8.4 -23.6°
Reaches altitude 10° 20:54:32 10° 335° (NNW) 1,945 7.5 -23.9°
Maximum altitude 20:58:50 67° 253° (WSW) 659 4.2 -24.6°
Enters shadow 20:59:00 66° 238° (WSW) 663 4.1 -24.6°
